Terug naar catalogus

SL-16 DEB

ActiefLEO
NORAD 22816·DEBRIS·🇷🇺 Russia

Gelanceerd Dec 25, 1992 vanaf Baikonur Cosmodrome

Loading…

Volgende Passages (komende 24 uur)

TLE

VersSource: Space-Track

Epoch: Sep 13, 2026, 10:46 UTC

1 22816U 92093JC  26256.44896324  .00027012  00000-0  27664-2 0  9992
2 22816  71.4373 260.1989 0030410 175.5312 184.6131 14.90055792722842

Volg SL-16 DEB in realtime met AllMySat

Download on the App Store